User: anonymous   Login
Location: Hartman Creek State Park
(44.3257°N, 89.2134°W)
Time: 12:04:34
(UTC-06:00)
Language:

BREEZE-M DEB (TANK) - Orbit

View from above orbital plane
View from above orbital plane
View from above satellite
View from above satellite

Ground track
Ground track

The orbit data is extracted from the following two-line orbital elements,

1 29649U 06056B   17059.07577825  .00001926  00000-0  42761-3 0  9991
2 29649  49.4923 313.4492 5376537  93.2796 326.4892  4.99268938182329
Epoch (UTC): 28 February 2017 01:49:07
Eccentricity: 0.5376537
inclination: 49.4923°
perigee height: 307 km
apogee height: 15857 km
right ascension of ascending node: 313.4492°
argument of perigee: 93.2796°
revolutions per day: 4.99268938
mean anomaly at epoch: 326.4892°
orbit number at epoch: 18232

The dashed part of the orbit path shows where the satellite is in the earth's shadow,  

DLR